owner,sensor,date,latitude,longitude,air_temperature,qcFlag 
COMPS,ioos:station:USF.COMPS:ARP:1,2011-09-01T00:00:00Z,28.4330,-82.6670,27.91,1111122 
COMPS,ioos:station:USF.COMPS:ARP:1,2011-09-01T00:06:00Z,28.4330,-82.6670,27.77,1111122 
COMPS,ioos:station:USF.COMPS:ARP:1,2011-09-01T00:12:00Z,28.4330,-82.6670,27.66,1111122 
COMPS,ioos:station:USF.COMPS:ARP:1,2011-09-01T00:18:00Z,28.4330,-82.6670,27.52,1111122 
COMPS,ioos:station:USF.COMPS:ARP:1,2011-09-01T00:24:00Z,28.4330,-82.6670,27.35,1111122 
COMPS,ioos:station:USF.COMPS:ARP:1,2011-09-01T00:30:00Z,28.4330,-82.6670,27.53,1111122 
COMPS,ioos:station:USF.COMPS:ARP:1,2011-09-01T00:36:00Z,28.4330,-82.6670,27.57,1111122 
COMPS,ioos:station:USF.COMPS:ARP:1,2011-09-01T00:42:00Z,28.4330,-82.6670,27.52,1111122 
COMPS,ioos:station:USF.COMPS:ARP:1,2011-09-01T00:48:00Z,28.4330,-82.6670,27.41,1111122 
COMPS,ioos:station:USF.COMPS:ARP:1,2011-09-01T00:54:00Z,28.4330,-82.6670,27.45,1111122 
COMPS,ioos:station:USF.COMPS:ARP:1,2011-09-01T01:00:00Z,28.4330,-82.6670,27.13,1111122 
COMPS,ioos:station:USF.COMPS:ARP:1,2011-09-01T01:06:00Z,28.4330,-82.6670,26.95,1111122 
COMPS,ioos:station:USF.COMPS:ARP:1,2011-09-01T01:12:00Z,28.4330,-82.6670,26.79,1111122 
COMPS,ioos:station:USF.COMPS:ARP:1,2011-09-01T01:18:00Z,28.4330,-82.6670,26.64,1111122 
COMPS,ioos:station:USF.COMPS:ARP:1,2011-09-01T01:24:00Z,28.4330,-82.6670,26.53,1111122 
COMPS,ioos:station:USF.COMPS:ARP:1,2011-09-01T01:30:00Z,28.4330,-82.6670,26.4,1111122 
COMPS,ioos:station:USF.COMPS:ARP:1,2011-09-01T01:36:00Z,28.4330,-82.6670,26.3,1111122 
COMPS,ioos:station:USF.COMPS:ARP:1,2011-09-01T01:42:00Z,28.4330,-82.6670,26.19,1111122 
COMPS,ioos:station:USF.COMPS:ARP:1,2011-09-01T01:48:00Z,28.4330,-82.6670,26.1,1111122 
COMPS,ioos:station:USF.COMPS:ARP:1,2011-09-01T01:54:00Z,28.4330,-82.6670,26.11,1111122 
COMPS,ioos:station:USF.COMPS:ARP:1,2011-09-01T02:00:00Z,28.4330,-82.6670,25.92,1111122 
COMPS,ioos:station:USF.COMPS:ARP:1,2011-09-01T02:06:00Z,28.4330,-82.6670,25.82,1111122 
COMPS,ioos:station:USF.COMPS:ARP:1,2011-09-01T02:12:00Z,28.4330,-82.6670,25.82,1111122 
COMPS,ioos:station:USF.COMPS:ARP:1,2011-09-01T02:18:00Z,28.4330,-82.6670,25.71,1111122 
COMPS,ioos:station:USF.COMPS:ARP:1,2011-09-01T02:24:00Z,28.4330,-82.6670,25.65,1111122 
COMPS,ioos:station:USF.COMPS:ARP:1,2011-09-01T02:30:00Z,28.4330,-82.6670,25.56,1111122 
COMPS,ioos:station:USF.COMPS:ARP:1,2011-09-01T02:36:00Z,28.4330,-82.6670,25.57,1111122 
COMPS,ioos:station:USF.COMPS:ARP:1,2011-09-01T02:42:00Z,28.4330,-82.6670,25.54,1111122 
COMPS,ioos:station:USF.COMPS:ARP:1,2011-09-01T02:48:00Z,28.4330,-82.6670,25.44,1111122 
COMPS,ioos:station:USF.COMPS:ARP:1,2011-09-01T02:54:00Z,28.4330,-82.6670,25.53,1111122 
COMPS,ioos:station:USF.COMPS:ARP:1,2011-09-01T03:00:00Z,28.4330,-82.6670,25.42,1111122 
COMPS,ioos:station:USF.COMPS:ARP:1,2011-09-01T03:06:00Z,28.4330,-82.6670,25.33,1111122 
COMPS,ioos:station:USF.COMPS:ARP:1,2011-09-01T03:12:00Z,28.4330,-82.6670,25.3,1111122 
COMPS,ioos:station:USF.COMPS:ARP:1,2011-09-01T03:18:00Z,28.4330,-82.6670,25.3,1111122 
COMPS,ioos:station:USF.COMPS:ARP:1,2011-09-01T03:24:00Z,28.4330,-82.6670,25.23,1111122 
COMPS,ioos:station:USF.COMPS:ARP:1,2011-09-01T03:30:00Z,28.4330,-82.6670,25.17,1111122 
COMPS,ioos:station:USF.COMPS:ARP:1,2011-09-01T03:36:00Z,28.4330,-82.6670,25.17,1111122 
COMPS,ioos:station:USF.COMPS:ARP:1,2011-09-01T03:42:00Z,28.4330,-82.6670,25.12,1111122 
COMPS,ioos:station:USF.COMPS:ARP:1,2011-09-01T03:48:00Z,28.4330,-82.6670,25.09,1111122 
COMPS,ioos:station:USF.COMPS:ARP:1,2011-09-01T03:54:00Z,28.4330,-82.6670,25.26,1111122 
COMPS,ioos:station:USF.COMPS:ARP:1,2011-09-01T18:00:00Z,28.4330,-82.6670,29.99,1111122 
COMPS,ioos:station:USF.COMPS:ARP:1,2011-09-01T18:06:00Z,28.4330,-82.6670,29.41,1111122 
COMPS,ioos:station:USF.COMPS:ARP:1,2011-09-01T18:12:00Z,28.4330,-82.6670,28.74,1111122 
COMPS,ioos:station:USF.COMPS:ARP:1,2011-09-01T18:18:00Z,28.4330,-82.6670,28.45,1111122 
COMPS,ioos:station:USF.COMPS:ARP:1,2011-09-01T18:24:00Z,28.4330,-82.6670,28.28,1111122 
COMPS,ioos:station:USF.COMPS:ARP:1,2011-09-01T18:30:00Z,28.4330,-82.6670,28.34,1111122 
COMPS,ioos:station:USF.COMPS:ARP:1,2011-09-01T18:36:00Z,28.4330,-82.6670,28.85,1111122 
COMPS,ioos:station:USF.COMPS:ARP:1,2011-09-01T18:42:00Z,28.4330,-82.6670,29.09,1111122 
COMPS,ioos:station:USF.COMPS:ARP:1,2011-09-01T18:48:00Z,28.4330,-82.6670,29.33,1111122 
COMPS,ioos:station:USF.COMPS:ARP:1,2011-09-01T18:54:00Z,28.4330,-82.6670,29.81,1111122 
COMPS,ioos:station:USF.COMPS:ARP:1,2011-09-01T19:00:00Z,28.4330,-82.6670,29.96,1111122 
COMPS,ioos:station:USF.COMPS:ARP:1,2011-09-01T19:06:00Z,28.4330,-82.6670,30.03,1111122 
COMPS,ioos:station:USF.COMPS:ARP:1,2011-09-01T19:12:00Z,28.4330,-82.6670,30.08,1111122 
COMPS,ioos:station:USF.COMPS:ARP:1,2011-09-01T19:18:00Z,28.4330,-82.6670,30.19,1111122 
COMPS,ioos:station:USF.COMPS:ARP:1,2011-09-01T19:24:00Z,28.4330,-82.6670,30.25,1111122 
COMPS,ioos:station:USF.COMPS:ARP:1,2011-09-01T19:30:00Z,28.4330,-82.6670,30.33,1111122 
COMPS,ioos:station:USF.COMPS:ARP:1,2011-09-01T19:36:00Z,28.4330,-82.6670,30.66,1111122 
COMPS,ioos:station:USF.COMPS:ARP:1,2011-09-01T19:42:00Z,28.4330,-82.6670,30.69,1111122 
COMPS,ioos:station:USF.COMPS:ARP:1,2011-09-01T19:48:00Z,28.4330,-82.6670,30.81,1111122 
COMPS,ioos:station:USF.COMPS:ARP:1,2011-09-01T19:54:00Z,28.4330,-82.6670,30.82,1111122 
COMPS,ioos:station:USF.COMPS:ARP:1,2011-09-01T20:00:00Z,28.4330,-82.6670,30.79,1111122 
COMPS,ioos:station:USF.COMPS:ARP:1,2011-09-01T20:06:00Z,28.4330,-82.6670,30.75,1111122 
COMPS,ioos:station:USF.COMPS:ARP:1,2011-09-01T20:12:00Z,28.4330,-82.6670,30.93,1111122 
COMPS,ioos:station:USF.COMPS:ARP:1,2011-09-01T20:18:00Z,28.4330,-82.6670,31.03,1111122 
COMPS,ioos:station:USF.COMPS:ARP:1,2011-09-01T20:24:00Z,28.4330,-82.6670,31.43,1111122 
COMPS,ioos:station:USF.COMPS:ARP:1,2011-09-01T20:30:00Z,28.4330,-82.6670,31.75,1111122 
COMPS,ioos:station:USF.COMPS:ARP:1,2011-09-01T20:36:00Z,28.4330,-82.6670,31.24,1111122 
COMPS,ioos:station:USF.COMPS:ARP:1,2011-09-01T20:42:00Z,28.4330,-82.6670,30.37,1111122 
COMPS,ioos:station:USF.COMPS:ARP:1,2011-09-01T20:48:00Z,28.4330,-82.6670,30.0,1111122 
COMPS,ioos:station:USF.COMPS:ARP:1,2011-09-01T20:54:00Z,28.4330,-82.6670,30.19,1111122 
COMPS,ioos:station:USF.COMPS:ARP:1,2011-09-01T21:00:00Z,28.4330,-82.6670,30.07,1111122 
COMPS,ioos:station:USF.COMPS:ARP:1,2011-09-01T21:06:00Z,28.4330,-82.6670,29.78,1111122 
COMPS,ioos:station:USF.COMPS:ARP:1,2011-09-01T21:12:00Z,28.4330,-82.6670,29.6,1111122 
COMPS,ioos:station:USF.COMPS:ARP:1,2011-09-01T21:18:00Z,28.4330,-82.6670,27.02,1111122 
COMPS,ioos:station:USF.COMPS:ARP:1,2011-09-01T21:24:00Z,28.4330,-82.6670,25.19,1111122 
COMPS,ioos:station:USF.COMPS:ARP:1,2011-09-01T21:30:00Z,28.4330,-82.6670,24.69,1111122 
COMPS,ioos:station:USF.COMPS:ARP:1,2011-09-01T21:36:00Z,28.4330,-82.6670,24.64,1111122 
COMPS,ioos:station:USF.COMPS:ARP:1,2011-09-01T21:42:00Z,28.4330,-82.6670,24.59,1111122 
COMPS,ioos:station:USF.COMPS:ARP:1,2011-09-01T21:48:00Z,28.4330,-82.6670,24.34,1111122 
COMPS,ioos:station:USF.COMPS:ARP:1,2011-09-01T21:54:00Z,28.4330,-82.6670,24.61,1111122 
COMPS,ioos:station:USF.COMPS:ARP:1,2011-09-01T22:00:00Z,28.4330,-82.6670,24.61,1111122 
COMPS,ioos:station:USF.COMPS:ARP:1,2011-09-01T22:06:00Z,28.4330,-82.6670,24.49,1111122 
COMPS,ioos:station:USF.COMPS:ARP:1,2011-09-01T22:12:00Z,28.4330,-82.6670,24.79,1111122 
COMPS,ioos:station:USF.COMPS:ARP:1,2011-09-01T22:18:00Z,28.4330,-82.6670,25.06,1111122 
COMPS,ioos:station:USF.COMPS:ARP:1,2011-09-01T22:24:00Z,28.4330,-82.6670,25.01,1111122 
COMPS,ioos:station:USF.COMPS:ARP:1,2011-09-01T22:30:00Z,28.4330,-82.6670,25.07,1111122 
COMPS,ioos:station:USF.COMPS:ARP:1,2011-09-01T22:36:00Z,28.4330,-82.6670,25.06,1111122 
COMPS,ioos:station:USF.COMPS:ARP:1,2011-09-01T22:42:00Z,28.4330,-82.6670,25.03,1111122 
COMPS,ioos:station:USF.COMPS:ARP:1,2011-09-01T22:48:00Z,28.4330,-82.6670,24.96,1111122 
COMPS,ioos:station:USF.COMPS:ARP:1,2011-09-01T22:54:00Z,28.4330,-82.6670,24.97,1111122 
COMPS,ioos:station:USF.COMPS:ARP:1,2011-09-01T23:00:00Z,28.4330,-82.6670,24.87,1111122 
COMPS,ioos:station:USF.COMPS:ARP:1,2011-09-01T23:06:00Z,28.4330,-82.6670,24.89,1111122 
COMPS,ioos:station:USF.COMPS:ARP:1,2011-09-01T23:12:00Z,28.4330,-82.6670,25.0,1111122 
COMPS,ioos:station:USF.COMPS:ARP:1,2011-09-01T23:18:00Z,28.4330,-82.6670,25.11,1111122 
COMPS,ioos:station:USF.COMPS:ARP:1,2011-09-01T23:24:00Z,28.4330,-82.6670,25.26,1111122 
COMPS,ioos:station:USF.COMPS:ARP:1,2011-09-01T23:30:00Z,28.4330,-82.6670,25.3,1111122 
COMPS,ioos:station:USF.COMPS:ARP:1,2011-09-01T23:36:00Z,28.4330,-82.6670,25.3,1111122 
COMPS,ioos:station:USF.COMPS:ARP:1,2011-09-01T23:42:00Z,28.4330,-82.6670,25.36,1111122 
COMPS,ioos:station:USF.COMPS:ARP:1,2011-09-01T23:48:00Z,28.4330,-82.6670,25.36,1111122 
COMPS,ioos:station:USF.COMPS:ARP:1,2011-09-01T23:54:00Z,28.4330,-82.6670,25.34,1111122 
COMPS,ioos:station:USF.COMPS:ARP:1,2011-09-02T00:00:00Z,28.4330,-82.6670,25.31,1111122 
COMPS,ioos:station:USF.COMPS:ARP:1,2011-09-02T00:06:00Z,28.4330,-82.6670,25.34,1111122 
COMPS,ioos:station:USF.COMPS:ARP:1,2011-09-02T00:12:00Z,28.4330,-82.6670,25.31,1111122 
COMPS,ioos:station:USF.COMPS:ARP:1,2011-09-02T00:18:00Z,28.4330,-82.6670,25.21,1111122 
COMPS,ioos:station:USF.COMPS:ARP:1,2011-09-02T00:24:00Z,28.4330,-82.6670,25.17,1111122 
COMPS,ioos:station:USF.COMPS:ARP:1,2011-09-02T00:30:00Z,28.4330,-82.6670,25.17,1111122 
COMPS,ioos:station:USF.COMPS:ARP:1,2011-09-02T00:36:00Z,28.4330,-82.6670,25.15,1111122 
COMPS,ioos:station:USF.COMPS:ARP:1,2011-09-02T00:42:00Z,28.4330,-82.6670,25.04,1111122 
COMPS,ioos:station:USF.COMPS:ARP:1,2011-09-02T00:48:00Z,28.4330,-82.6670,25.03,1111122 
COMPS,ioos:station:USF.COMPS:ARP:1,2011-09-02T00:54:00Z,28.4330,-82.6670,25.04,1111122 
COMPS,ioos:station:USF.COMPS:ARP:1,2011-09-02T01:00:00Z,28.4330,-82.6670,24.9,1111122 
COMPS,ioos:station:USF.COMPS:ARP:1,2011-09-02T01:06:00Z,28.4330,-82.6670,24.85,1111122 
COMPS,ioos:station:USF.COMPS:ARP:1,2011-09-02T01:12:00Z,28.4330,-82.6670,24.86,1111122 
COMPS,ioos:station:USF.COMPS:ARP:1,2011-09-02T01:18:00Z,28.4330,-82.6670,24.82,1111122 
COMPS,ioos:station:USF.COMPS:ARP:1,2011-09-02T01:24:00Z,28.4330,-82.6670,24.85,1111122 
COMPS,ioos:station:USF.COMPS:ARP:1,2011-09-02T01:30:00Z,28.4330,-82.6670,24.76,1111122 
COMPS,ioos:station:USF.COMPS:ARP:1,2011-09-02T01:36:00Z,28.4330,-82.6670,24.87,1111122 
COMPS,ioos:station:USF.COMPS:ARP:1,2011-09-02T01:42:00Z,28.4330,-82.6670,24.9,1111122 
COMPS,ioos:station:USF.COMPS:ARP:1,2011-09-02T01:48:00Z,28.4330,-82.6670,24.85,1111122 
COMPS,ioos:station:USF.COMPS:ARP:1,2011-09-02T01:54:00Z,28.4330,-82.6670,24.92,1111122 
COMPS,ioos:station:USF.COMPS:ARP:1,2011-09-02T02:00:00Z,28.4330,-82.6670,24.9,1111122 
COMPS,ioos:station:USF.COMPS:ARP:1,2011-09-02T02:06:00Z,28.4330,-82.6670,24.83,1111122 
COMPS,ioos:station:USF.COMPS:ARP:1,2011-09-02T02:12:00Z,28.4330,-82.6670,24.83,1111122 
COMPS,ioos:station:USF.COMPS:ARP:1,2011-09-02T02:18:00Z,28.4330,-82.6670,24.76,1111122 
COMPS,ioos:station:USF.COMPS:ARP:1,2011-09-02T02:24:00Z,28.4330,-82.6670,24.82,1111122 
COMPS,ioos:station:USF.COMPS:ARP:1,2011-09-02T02:30:00Z,28.4330,-82.6670,24.85,1111122 
COMPS,ioos:station:USF.COMPS:ARP:1,2011-09-02T02:36:00Z,28.4330,-82.6670,24.81,1111122 
COMPS,ioos:station:USF.COMPS:ARP:1,2011-09-02T02:42:00Z,28.4330,-82.6670,24.77,1111122 
COMPS,ioos:station:USF.COMPS:ARP:1,2011-09-02T02:48:00Z,28.4330,-82.6670,24.76,1111122 
COMPS,ioos:station:USF.COMPS:ARP:1,2011-09-02T02:54:00Z,28.4330,-82.6670,24.82,1111122 
COMPS,ioos:station:USF.COMPS:ARP:1,2011-09-02T03:00:00Z,28.4330,-82.6670,24.81,1111122 
COMPS,ioos:station:USF.COMPS:ARP:1,2011-09-02T03:06:00Z,28.4330,-82.6670,24.8,1111122 
COMPS,ioos:station:USF.COMPS:ARP:1,2011-09-02T03:12:00Z,28.4330,-82.6670,24.76,1111122 
COMPS,ioos:station:USF.COMPS:ARP:1,2011-09-02T03:18:00Z,28.4330,-82.6670,24.76,1111122 
COMPS,ioos:station:USF.COMPS:ARP:1,2011-09-02T03:24:00Z,28.4330,-82.6670,24.78,1111122 
COMPS,ioos:station:USF.COMPS:ARP:1,2011-09-02T03:30:00Z,28.4330,-82.6670,24.87,1111122 
COMPS,ioos:station:USF.COMPS:ARP:1,2011-09-02T03:36:00Z,28.4330,-82.6670,24.88,1111122 
COMPS,ioos:station:USF.COMPS:ARP:1,2011-09-02T03:42:00Z,28.4330,-82.6670,24.85,1111122 
COMPS,ioos:station:USF.COMPS:ARP:1,2011-09-02T03:48:00Z,28.4330,-82.6670,24.88,1111122 
COMPS,ioos:station:USF.COMPS:ARP:1,2011-09-02T03:54:00Z,28.4330,-82.6670,24.93,1111122 
COMPS,ioos:station:USF.COMPS:ARP:1,2011-09-02T04:00:00Z,28.4330,-82.6670,24.81,1111122 
COMPS,ioos:station:USF.COMPS:ARP:1,2011-09-02T04:06:00Z,28.4330,-82.6670,24.88,1111122 
COMPS,ioos:station:USF.COMPS:ARP:1,2011-09-02T04:12:00Z,28.4330,-82.6670,24.81,1111122 
COMPS,ioos:station:USF.COMPS:ARP:1,2011-09-02T04:18:00Z,28.4330,-82.6670,24.78,1111122 
COMPS,ioos:station:USF.COMPS:ARP:1,2011-09-02T04:24:00Z,28.4330,-82.6670,24.81,1111122 
COMPS,ioos:station:USF.COMPS:ARP:1,2011-09-02T04:30:00Z,28.4330,-82.6670,24.78,1111122 
COMPS,ioos:station:USF.COMPS:ARP:1,2011-09-02T04:36:00Z,28.4330,-82.6670,24.76,1111122 
COMPS,ioos:station:USF.COMPS:ARP:1,2011-09-02T04:42:00Z,28.4330,-82.6670,24.75,1111122 
COMPS,ioos:station:USF.COMPS:ARP:1,2011-09-02T04:48:00Z,28.4330,-82.6670,24.72,1111122 
COMPS,ioos:station:USF.COMPS:ARP:1,2011-09-02T04:54:00Z,28.4330,-82.6670,24.71,1111122 
COMPS,ioos:station:USF.COMPS:ARP:1,2011-09-02T05:00:00Z,28.4330,-82.6670,24.52,1111122 
COMPS,ioos:station:USF.COMPS:ARP:1,2011-09-02T05:06:00Z,28.4330,-82.6670,24.5,1111122 
COMPS,ioos:station:USF.COMPS:ARP:1,2011-09-02T05:12:00Z,28.4330,-82.6670,24.49,1111122 
COMPS,ioos:station:USF.COMPS:ARP:1,2011-09-02T05:18:00Z,28.4330,-82.6670,24.45,1111122 
COMPS,ioos:station:USF.COMPS:ARP:1,2011-09-02T05:24:00Z,28.4330,-82.6670,24.35,1111122 
COMPS,ioos:station:USF.COMPS:ARP:1,2011-09-02T05:30:00Z,28.4330,-82.6670,24.34,1111122 
COMPS,ioos:station:USF.COMPS:ARP:1,2011-09-02T05:36:00Z,28.4330,-82.6670,24.32,1111122 
COMPS,ioos:station:USF.COMPS:ARP:1,2011-09-02T05:42:00Z,28.4330,-82.6670,24.37,1111122 
COMPS,ioos:station:USF.COMPS:ARP:1,2011-09-02T05:48:00Z,28.4330,-82.6670,24.29,1111122 
COMPS,ioos:station:USF.COMPS:ARP:1,2011-09-02T05:54:00Z,28.4330,-82.6670,24.35,1111122 
COMPS,ioos:station:USF.COMPS:ARP:1,2011-09-02T06:00:00Z,28.4330,-82.6670,24.22,1111122 
COMPS,ioos:station:USF.COMPS:ARP:1,2011-09-02T06:06:00Z,28.4330,-82.6670,24.24,1111122 
COMPS,ioos:station:USF.COMPS:ARP:1,2011-09-02T06:12:00Z,28.4330,-82.6670,24.23,1111122 
COMPS,ioos:station:USF.COMPS:ARP:1,2011-09-02T06:18:00Z,28.4330,-82.6670,24.27,1111122 
COMPS,ioos:station:USF.COMPS:ARP:1,2011-09-02T06:24:00Z,28.4330,-82.6670,24.3,1111122 
COMPS,ioos:station:USF.COMPS:ARP:1,2011-09-02T06:30:00Z,28.4330,-82.6670,24.22,1111122 
COMPS,ioos:station:USF.COMPS:ARP:1,2011-09-02T06:36:00Z,28.4330,-82.6670,24.23,1111122 
COMPS,ioos:station:USF.COMPS:ARP:1,2011-09-02T06:42:00Z,28.4330,-82.6670,24.2,1111122 
COMPS,ioos:station:USF.COMPS:ARP:1,2011-09-02T06:48:00Z,28.4330,-82.6670,24.15,1111122 
COMPS,ioos:station:USF.COMPS:ARP:1,2011-09-02T06:54:00Z,28.4330,-82.6670,24.27,1111122 
COMPS,ioos:station:USF.COMPS:ARP:1,2011-09-02T07:00:00Z,28.4330,-82.6670,24.18,1111122 
COMPS,ioos:station:USF.COMPS:ARP:1,2011-09-02T07:06:00Z,28.4330,-82.6670,24.13,1111122 
COMPS,ioos:station:USF.COMPS:ARP:1,2011-09-02T07:12:00Z,28.4330,-82.6670,24.07,1111122 
COMPS,ioos:station:USF.COMPS:ARP:1,2011-09-02T07:18:00Z,28.4330,-82.6670,24.05,1111122 
COMPS,ioos:station:USF.COMPS:ARP:1,2011-09-02T07:24:00Z,28.4330,-82.6670,23.99,1111122 
COMPS,ioos:station:USF.COMPS:ARP:1,2011-09-02T07:30:00Z,28.4330,-82.6670,24.06,1111122 
COMPS,ioos:station:USF.COMPS:ARP:1,2011-09-02T07:36:00Z,28.4330,-82.6670,24.03,1111122 
COMPS,ioos:station:USF.COMPS:ARP:1,2011-09-02T07:42:00Z,28.4330,-82.6670,24.1,1111122 
COMPS,ioos:station:USF.COMPS:ARP:1,2011-09-02T07:48:00Z,28.4330,-82.6670,24.05,1111122 
COMPS,ioos:station:USF.COMPS:ARP:1,2011-09-02T07:54:00Z,28.4330,-82.6670,24.1,1111122 
COMPS,ioos:station:USF.COMPS:ARP:1,2011-09-02T08:00:00Z,28.4330,-82.6670,24.09,1111122 
COMPS,ioos:station:USF.COMPS:ARP:1,2011-09-02T08:06:00Z,28.4330,-82.6670,24.03,1111122 
COMPS,ioos:station:USF.COMPS:ARP:1,2011-09-02T08:12:00Z,28.4330,-82.6670,23.94,1111122 
COMPS,ioos:station:USF.COMPS:ARP:1,2011-09-02T08:18:00Z,28.4330,-82.6670,23.92,1111122 
COMPS,ioos:station:USF.COMPS:ARP:1,2011-09-02T08:24:00Z,28.4330,-82.6670,23.91,1111122 
COMPS,ioos:station:USF.COMPS:ARP:1,2011-09-02T08:30:00Z,28.4330,-82.6670,23.93,1111122 
COMPS,ioos:station:USF.COMPS:ARP:1,2011-09-02T08:36:00Z,28.4330,-82.6670,23.84,1111122 
COMPS,ioos:station:USF.COMPS:ARP:1,2011-09-02T08:42:00Z,28.4330,-82.6670,23.82,1111122 
COMPS,ioos:station:USF.COMPS:ARP:1,2011-09-02T08:48:00Z,28.4330,-82.6670,23.84,1111122 
COMPS,ioos:station:USF.COMPS:ARP:1,2011-09-02T08:54:00Z,28.4330,-82.6670,23.88,1111122 
COMPS,ioos:station:USF.COMPS:ARP:1,2011-09-02T09:00:00Z,28.4330,-82.6670,23.78,1111122 
COMPS,ioos:station:USF.COMPS:ARP:1,2011-09-02T09:06:00Z,28.4330,-82.6670,23.73,1111122 
COMPS,ioos:station:USF.COMPS:ARP:1,2011-09-02T09:12:00Z,28.4330,-82.6670,23.67,1111122 
COMPS,ioos:station:USF.COMPS:ARP:1,2011-09-02T09:18:00Z,28.4330,-82.6670,23.66,1111122 
COMPS,ioos:station:USF.COMPS:ARP:1,2011-09-02T09:24:00Z,28.4330,-82.6670,23.66,1111122 
COMPS,ioos:station:USF.COMPS:ARP:1,2011-09-02T09:30:00Z,28.4330,-82.6670,23.58,1111122 
COMPS,ioos:station:USF.COMPS:ARP:1,2011-09-02T09:36:00Z,28.4330,-82.6670,23.55,1111122 
COMPS,ioos:station:USF.COMPS:ARP:1,2011-09-02T09:42:00Z,28.4330,-82.6670,23.58,1111122 
COMPS,ioos:station:USF.COMPS:ARP:1,2011-09-02T09:48:00Z,28.4330,-82.6670,23.56,1111122 
COMPS,ioos:station:USF.COMPS:ARP:1,2011-09-02T09:54:00Z,28.4330,-82.6670,23.61,1111122 
COMPS,ioos:station:USF.COMPS:ARP:1,2011-09-02T11:00:00Z,28.4330,-82.6670,23.42,1111122 
COMPS,ioos:station:USF.COMPS:ARP:1,2011-09-02T11:06:00Z,28.4330,-82.6670,23.42,1111122 
COMPS,ioos:station:USF.COMPS:ARP:1,2011-09-02T11:12:00Z,28.4330,-82.6670,23.49,1111122 
COMPS,ioos:station:USF.COMPS:ARP:1,2011-09-02T11:18:00Z,28.4330,-82.6670,23.49,1111122 
COMPS,ioos:station:USF.COMPS:ARP:1,2011-09-02T11:24:00Z,28.4330,-82.6670,23.52,1111122 
COMPS,ioos:station:USF.COMPS:ARP:1,2011-09-02T11:30:00Z,28.4330,-82.6670,23.57,1111122 
COMPS,ioos:station:USF.COMPS:ARP:1,2011-09-02T11:36:00Z,28.4330,-82.6670,23.66,1111122 
COMPS,ioos:station:USF.COMPS:ARP:1,2011-09-02T11:42:00Z,28.4330,-82.6670,23.72,1111122 
COMPS,ioos:station:USF.COMPS:ARP:1,2011-09-02T11:48:00Z,28.4330,-82.6670,23.83,1111122 
COMPS,ioos:station:USF.COMPS:ARP:1,2011-09-02T11:54:00Z,28.4330,-82.6670,23.99,1111122 
COMPS,ioos:station:USF.COMPS:ARP:1,2011-09-02T12:00:00Z,28.4330,-82.6670,24.11,1111122 
COMPS,ioos:station:USF.COMPS:ARP:1,2011-09-02T12:06:00Z,28.4330,-82.6670,24.25,1111122 
COMPS,ioos:station:USF.COMPS:ARP:1,2011-09-02T12:12:00Z,28.4330,-82.6670,24.33,1111122 
COMPS,ioos:station:USF.COMPS:ARP:1,2011-09-02T12:18:00Z,28.4330,-82.6670,24.47,1111122 
COMPS,ioos:station:USF.COMPS:ARP:1,2011-09-02T12:24:00Z,28.4330,-82.6670,24.65,1111122 
COMPS,ioos:station:USF.COMPS:ARP:1,2011-09-02T12:30:00Z,28.4330,-82.6670,24.95,1111122 
COMPS,ioos:station:USF.COMPS:ARP:1,2011-09-02T12:36:00Z,28.4330,-82.6670,25.16,1111122 
COMPS,ioos:station:USF.COMPS:ARP:1,2011-09-02T12:42:00Z,28.4330,-82.6670,25.4,1111122 
COMPS,ioos:station:USF.COMPS:ARP:1,2011-09-02T12:48:00Z,28.4330,-82.6670,25.54,1111122 
COMPS,ioos:station:USF.COMPS:ARP:1,2011-09-02T12:54:00Z,28.4330,-82.6670,25.74,1111122 
COMPS,ioos:station:USF.COMPS:ARP:1,2011-09-02T13:00:00Z,28.4330,-82.6670,25.76,1111122 
COMPS,ioos:station:USF.COMPS:ARP:1,2011-09-02T13:06:00Z,28.4330,-82.6670,26.0,1111122 
COMPS,ioos:station:USF.COMPS:ARP:1,2011-09-02T13:12:00Z,28.4330,-82.6670,26.06,1111122 
COMPS,ioos:station:USF.COMPS:ARP:1,2011-09-02T13:18:00Z,28.4330,-82.6670,26.36,1111122 
COMPS,ioos:station:USF.COMPS:ARP:1,2011-09-02T13:24:00Z,28.4330,-82.6670,26.35,1111122 
COMPS,ioos:station:USF.COMPS:ARP:1,2011-09-02T13:30:00Z,28.4330,-82.6670,26.35,1111122 
COMPS,ioos:station:USF.COMPS:ARP:1,2011-09-02T13:36:00Z,28.4330,-82.6670,26.32,1111122 
COMPS,ioos:station:USF.COMPS:ARP:1,2011-09-02T13:42:00Z,28.4330,-82.6670,26.66,1111122 
COMPS,ioos:station:USF.COMPS:ARP:1,2011-09-02T13:48:00Z,28.4330,-82.6670,26.81,1111122 
COMPS,ioos:station:USF.COMPS:ARP:1,2011-09-02T13:54:00Z,28.4330,-82.6670,27.02,1111122 
COMPS,ioos:station:USF.COMPS:ARP:1,2011-09-02T14:00:00Z,28.4330,-82.6670,27.14,1111122 
COMPS,ioos:station:USF.COMPS:ARP:1,2011-09-02T14:06:00Z,28.4330,-82.6670,27.5,1111122 
COMPS,ioos:station:USF.COMPS:ARP:1,2011-09-02T14:12:00Z,28.4330,-82.6670,27.9,1111122 
COMPS,ioos:station:USF.COMPS:ARP:1,2011-09-02T14:18:00Z,28.4330,-82.6670,28.12,1111122 
COMPS,ioos:station:USF.COMPS:ARP:1,2011-09-02T14:24:00Z,28.4330,-82.6670,28.05,1111122 
COMPS,ioos:station:USF.COMPS:ARP:1,2011-09-02T14:30:00Z,28.4330,-82.6670,27.88,1111122 
COMPS,ioos:station:USF.COMPS:ARP:1,2011-09-02T14:36:00Z,28.4330,-82.6670,27.81,1111122 
COMPS,ioos:station:USF.COMPS:ARP:1,2011-09-02T14:42:00Z,28.4330,-82.6670,28.03,1111122 
COMPS,ioos:station:USF.COMPS:ARP:1,2011-09-02T14:48:00Z,28.4330,-82.6670,28.34,1111122 
COMPS,ioos:station:USF.COMPS:ARP:1,2011-09-02T14:54:00Z,28.4330,-82.6670,28.46,1111122 
COMPS,ioos:station:USF.COMPS:ARP:1,2011-09-02T15:00:00Z,28.4330,-82.6670,28.54,1111122 
COMPS,ioos:station:USF.COMPS:ARP:1,2011-09-02T15:06:00Z,28.4330,-82.6670,28.69,1111122 
COMPS,ioos:station:USF.COMPS:ARP:1,2011-09-02T15:12:00Z,28.4330,-82.6670,28.75,1111122 
COMPS,ioos:station:USF.COMPS:ARP:1,2011-09-02T15:18:00Z,28.4330,-82.6670,28.57,1111122 
COMPS,ioos:station:USF.COMPS:ARP:1,2011-09-02T15:24:00Z,28.4330,-82.6670,28.97,1111122 
COMPS,ioos:station:USF.COMPS:ARP:1,2011-09-02T15:30:00Z,28.4330,-82.6670,28.97,1111122 
COMPS,ioos:station:USF.COMPS:ARP:1,2011-09-02T15:36:00Z,28.4330,-82.6670,29.05,1111122 
COMPS,ioos:station:USF.COMPS:ARP:1,2011-09-02T15:42:00Z,28.4330,-82.6670,29.16,1111122 
COMPS,ioos:station:USF.COMPS:ARP:1,2011-09-02T15:48:00Z,28.4330,-82.6670,29.36,1111122 
COMPS,ioos:station:USF.COMPS:ARP:1,2011-09-02T15:54:00Z,28.4330,-82.6670,29.71,1111122 
COMPS,ioos:station:USF.COMPS:ARP:1,2011-09-02T17:00:00Z,28.4330,-82.6670,30.69,1111122 
COMPS,ioos:station:USF.COMPS:ARP:1,2011-09-02T17:06:00Z,28.4330,-82.6670,30.8,1111122 
COMPS,ioos:station:USF.COMPS:ARP:1,2011-09-02T17:12:00Z,28.4330,-82.6670,30.76,1111122 
COMPS,ioos:station:USF.COMPS:ARP:1,2011-09-02T17:18:00Z,28.4330,-82.6670,30.66,1111122 
COMPS,ioos:station:USF.COMPS:ARP:1,2011-09-02T17:24:00Z,28.4330,-82.6670,30.55,1111122 
COMPS,ioos:station:USF.COMPS:ARP:1,2011-09-02T17:30:00Z,28.4330,-82.6670,30.63,1111122 
COMPS,ioos:station:USF.COMPS:ARP:1,2011-09-02T17:36:00Z,28.4330,-82.6670,30.62,1111122 
COMPS,ioos:station:USF.COMPS:ARP:1,2011-09-02T17:42:00Z,28.4330,-82.6670,30.64,1111122 
COMPS,ioos:station:USF.COMPS:ARP:1,2011-09-02T17:48:00Z,28.4330,-82.6670,30.94,1111122 
COMPS,ioos:station:USF.COMPS:ARP:1,2011-09-02T17:54:00Z,28.4330,-82.6670,30.99,1111122 
COMPS,ioos:station:USF.COMPS:ARP:1,2011-09-02T18:00:00Z,28.4330,-82.6670,31.25,1111122 
COMPS,ioos:station:USF.COMPS:ARP:1,2011-09-02T18:06:00Z,28.4330,-82.6670,31.32,1111122 
COMPS,ioos:station:USF.COMPS:ARP:1,2011-09-02T18:12:00Z,28.4330,-82.6670,31.18,1111122 
COMPS,ioos:station:USF.COMPS:ARP:1,2011-09-02T18:18:00Z,28.4330,-82.6670,31.35,1111122 
COMPS,ioos:station:USF.COMPS:ARP:1,2011-09-02T18:24:00Z,28.4330,-82.6670,31.61,1111122 
COMPS,ioos:station:USF.COMPS:ARP:1,2011-09-02T18:30:00Z,28.4330,-82.6670,31.41,1111122 
COMPS,ioos:station:USF.COMPS:ARP:1,2011-09-02T18:36:00Z,28.4330,-82.6670,31.49,1111122 
COMPS,ioos:station:USF.COMPS:ARP:1,2011-09-02T18:42:00Z,28.4330,-82.6670,31.61,1111122 
COMPS,ioos:station:USF.COMPS:ARP:1,2011-09-02T18:48:00Z,28.4330,-82.6670,31.65,1111122 
COMPS,ioos:station:USF.COMPS:ARP:1,2011-09-02T18:54:00Z,28.4330,-82.6670,31.79,1111122 
COMPS,ioos:station:USF.COMPS:ARP:1,2011-09-02T19:00:00Z,28.4330,-82.6670,31.69,1111122 
COMPS,ioos:station:USF.COMPS:ARP:1,2011-09-02T19:06:00Z,28.4330,-82.6670,31.75,1111122 